Ostrava, Czech Republic

6:10 AM CET on December 04, 2016 (GMT +0100)
Mosnov

Weather History for LKMT - October, 2012

Change the Weather History Date:

Saturday, October 6, 2012

  Actual Average Record
Temperature  
Mean Temperature 61 °F -  
Max Temperature 72 °F - - ()
Min Temperature 50 °F - - ()
Degree Days  
Heating Degree Days 4    
Growing Degree Days 11 (Base 50)    
Moisture  
Dew Point 51 °F    
Average Humidity 66    
Maximum Humidity 88    
Minimum Humidity 43    
Precipitation  
Precipitation 0.02 in - - ()
Sea Level Pressure  
Sea Level Pressure 29.95 in    
Wind  
Wind Speed 13 mph ()    
Max Wind Speed 28 mph    
Max Gust Speed 30 mph    
Visibility 10.7 miles    
Events      
T = Trace of Precipitation, MM = Missing Value Source: Averaged Metar Reports

Daily Weather History Graph

Daily Weather History Graph

Search for Another Location

Airport or City:

Trip Planner

Search our weather history database for the weather conditions in past years. The results will help you decide how hot, cold, wet, or windy it might be!

Date:

Astronomy

Oct. 06, 2012 Rise Set
Actual Time 6:55 AM CEST 6:14 PM CEST
Civil Twilight 6:23 AM CEST 6:46 PM CEST
Nautical Twilight 5:46 AM CEST 7:23 PM CEST
Astronomical Twilight 5:08 AM CEST 8:01 PM CEST
Moon 9:48 PM CEST (10/6) 1:02 PM CEST (10/6)
Length of Visible Light 12h 23m
Length of Day
11h 19m
Waning Gibbous, 68% of the Moon is Illuminated
Oct 6
Waning Gibbous
Oct 8
Last Quarter
Oct 15
New
Oct 22
First Quarter
Oct 29
Full

Hourly Weather History & Observations

Time (CEST) Temp. Dew Point Humidity Pressure Visibility Wind Dir Wind Speed Gust Speed Precip Events Conditions
12:00 AM 60.8 °F 50.0 °F 68% 29.98 in - SSW 15.0 mph - N/A   Clear
12:30 AM 60.8 °F 50.0 °F 68% 29.98 in - SSW 15.0 mph - N/A   Clear
1:00 AM 60.8 °F 50.0 °F 68% 29.98 in - SSW 15.0 mph - N/A   Clear
1:30 AM 59.0 °F 50.0 °F 72% 29.98 in 6.2 mi SSW 13.8 mph - N/A   Partly Cloudy
2:00 AM 56 °F 49 °F 71% 29.98 in 19 mi SW 8.9 mph - -   Partly Cloudy
2:00 AM 55.4 °F 50.0 °F 82% 30.01 in - SW 6.9 mph - N/A   Clear
2:30 AM 55.4 °F 50.0 °F 82% 30.01 in - WSW 6.9 mph - N/A   Clear
3:00 AM 53.6 °F 48.2 °F 82% 30.01 in - WSW 6.9 mph - N/A   Clear
3:30 AM 55.4 °F 50.0 °F 82% 30.01 in - WSW 10.4 mph - N/A   Clear
4:00 AM 53.6 °F 50.0 °F 88% 30.01 in - SW 10.4 mph - N/A   Clear
4:30 AM 51.8 °F 48.2 °F 88% 30.01 in - SW 8.1 mph - N/A   Clear
5:00 AM 51.8 °F 48.2 °F 88% 30.01 in - SW 9.2 mph - N/A   Clear
5:30 AM 53.6 °F 48.2 °F 82% 30.01 in - SSW 10.4 mph - N/A   Clear
6:00 AM 51.8 °F 48.2 °F 88% 30.01 in - SW 6.9 mph - N/A   Clear
6:30 AM 53.6 °F 50.0 °F 88% 30.01 in - SW 6.9 mph - N/A   Clear
7:00 AM 53.6 °F 50.0 °F 88% 30.01 in - SW 8.1 mph - N/A   Clear
7:30 AM 55.4 °F 50.0 °F 82% 30.01 in - SSW 9.2 mph - N/A   Clear
8:00 AM 57 °F 50 °F 70% 29.98 in 22 mi SW 11.2 mph - -   Clear
8:00 AM 57.2 °F 50.0 °F 77% 30.01 in - SSW 11.5 mph - N/A   Clear
8:30 AM 59.0 °F 51.8 °F 77% 30.01 in - SW 12.7 mph - N/A   Clear
9:00 AM 60.8 °F 51.8 °F 72% 30.01 in - SW 10.4 mph - N/A   Clear
9:30 AM 62.6 °F 51.8 °F 68% 30.01 in - SSW 13.8 mph - N/A   Clear
10:00 AM 64.4 °F 51.8 °F 64% 30.01 in - SSW 17.3 mph - N/A   Clear
10:30 AM 64.4 °F 51.8 °F 64% 30.01 in - SSW 17.3 mph - N/A   Clear
11:00 AM 66.2 °F 51.8 °F 60% 29.98 in - SSW 16.1 mph - N/A   Clear
11:30 AM 68.0 °F 53.6 °F 60% 29.98 in - SW 18.4 mph - N/A   Clear
12:00 PM 69.8 °F 55.4 °F 60% 29.98 in - SW 19.6 mph - N/A   Clear
12:30 PM 69.8 °F 55.4 °F 60% 29.98 in - WSW 20.7 mph - N/A   Clear
1:00 PM 69.8 °F 53.6 °F 56% 29.95 in - SW 23.0 mph - N/A   Clear
1:30 PM 71.6 °F 53.6 °F 53% 29.95 in - SW 26.5 mph - N/A   Clear
2:00 PM 71 °F 53 °F 43% 29.88 in 25 mi SW 26.8 mph - -   Scattered Clouds
2:00 PM 71.6 °F 53.6 °F 53% 29.92 in - SW 26.5 mph - N/A   Clear
2:30 PM 71.6 °F 51.8 °F 50% 29.92 in - SW 27.6 mph - N/A   Clear
3:00 PM 71.6 °F 53.6 °F 53% 29.92 in - SW 25.3 mph - N/A   Clear
3:30 PM 71.6 °F 51.8 °F 50% 29.92 in 6.2 mi SW 21.9 mph - N/A   Partly Cloudy
4:00 PM 71.6 °F 51.8 °F 50% 29.92 in 6.2 mi SW 20.7 mph - N/A   Partly Cloudy
4:30 PM 71.6 °F 51.8 °F 50% 29.89 in - SW 19.6 mph - N/A   Clear
5:00 PM 71.6 °F 51.8 °F 50% 29.89 in - SSW 16.1 mph - N/A   Clear
5:30 PM 69.8 °F 51.8 °F 53% 29.89 in - SSW 15.0 mph - N/A   Clear
6:00 PM 69.8 °F 50.0 °F 49% 29.86 in - South 16.1 mph 27.6 mph N/A   Clear
6:30 PM 68.0 °F 50.0 °F 52% 29.86 in - South 16.1 mph 29.9 mph N/A   Clear
7:00 PM 68.0 °F 50.0 °F 52% 29.89 in - South 16.1 mph - N/A   Clear
7:30 PM 68.0 °F 50.0 °F 52% 29.89 in - SSW 13.8 mph - N/A   Clear
8:00 PM 68 °F 50 °F 43% 29.87 in 16 mi SSW 13.4 mph - -   Clear
8:00 PM 68.0 °F 50.0 °F 52% 29.86 in - SSW 10.4 mph - N/A   Clear
8:30 PM 62.6 °F 51.8 °F 68% 29.89 in - West 10.4 mph - N/A   Clear
9:00 PM 62.6 °F 51.8 °F 68% 29.86 in - SW 12.7 mph - N/A   Clear
9:30 PM 64.4 °F 51.8 °F 64% 29.86 in - SW 15.0 mph - N/A   Clear
10:00 PM 66.2 °F 51.8 °F 60% 29.86 in - SSW 15.0 mph - N/A   Clear
10:30 PM 62.6 °F 51.8 °F 68% 29.89 in - SW 12.7 mph - N/A   Clear
11:00 PM 60.8 °F 51.8 °F 72% 29.89 in - SW 10.4 mph - N/A   Clear
11:30 PM 64.4 °F 51.8 °F 64% 29.89 in - SW 11.5 mph - N/A   Clear